Location: Kaikalui
(16.5250°N, 81.1500°E)
Time: 22:34:05
(UTC+00:00)

Meteor 1-11 Rocket - Pass Details

Date: 14 April 2026
Orbit: 830 x 914 km, 81.2° (Epoch: 9 May)

Event Time Altitude Azimuth Distance (km) Brightness Sun altitude
Rises 22:40:20 0° 350° (N) 3,511 7.0 -24.1°
Reaches altitude 10° 22:42:49 10° 349° (N) 2,559 6.3 -23.5°
Maximum altitude 22:48:37 72° 266° (W) 921 3.6 -22.2°
Drops below altitude 10° 22:54:16 10° 182° (S) 2,499 6.0 -20.9°
Sets 22:56:41 0° 180° (S) 3,423 6.7 -20.3°
